Theta_e
303 304 305 305 304 303 300 300 298 298 297 297 296 295 294 294 294 295 304 308 314 320 319 320 317 324 323 322 326 324 328 328 325 330 328 328 328 328 330 329 332 331 334 337 334 336 330 328 327 332 333 327 329 328
301 301 304 304 302 301 300 298 297 296 297 297 296 295 294 294 294 294 307 311 310 313 315 310 311 312 312 319 322 324 326 331 324 326 323 324 325 324 327 326 325 329 330 333 336 331 330 327 329 327 326 330 329 327
300 300 301 302 300 299 298 297 296 296 296 297 296 296 294 294 294 294 303 307 308 310 311 307 311 308 312 310 315 319 324 327 329 323 324 325 330 323 327 326 325 326 327 332 333 331 329 329 327 327 327 327 326 325
301 302 302 300 298 298 297 296 296 296 296 297 296 295 294 294 294 294 300 306 307 309 311 308 310 311 311 317 317 318 320 319 320 318 325 328 328 322 325 325 325 325 329 331 330 329 329 329 329 328 327 326 326 323
300 300 299 298 297 297 296 296 296 296 296 297 297 295 294 294 294 294 297 303 307 310 312 314 310 310 313 317 316 317 317 319 320 323 324 327 321 320 318 318 321 323 328 328 325 331 332 331 330 327 325 323 323 323
299 299 298 297 297 297 297 296 296 296 297 297 297 295 295 294 294 296 306 302 306 308 310 314 309 310 311 315 316 316 315 315 315 319 320 317 315 318 323 323 322 319 320 324 324 322 326 325 323 322 322 322 321 321
299 298 298 297 297 297 297 296 296 297 297 297 296 294 294 294 294 302 305 303 304 307 309 310 311 309 309 310 309 315 313 314 314 315 316 317 317 317 318 318 319 319 318 320 319 321 322 321 322 321 322 321 319 320
299 298 297 297 297 297 297 296 296 297 297 297 295 294 294 294 294 299 303 303 303 306 308 308 310 314 308 312 314 308 316 316 315 316 315 315 313 314 318 318 317 314 314 317 319 318 320 321 321 320 319 319 321 320
298 298 298 297 297 297 297 297 297 297 297 296 295 294 294 294 297 302 305 305 306 305 305 309 312 316 308 311 311 312 312 315 311 316 316 316 316 316 315 314 313 312 315 316 317 318 319 322 320 319 319 320 320 319
298 298 298 298 298 298 297 297 297 298 296 296 295 299 298 298 304 303 302 303 303 303 308 311 309 312 311 312 313 315 312 314 315 314 311 317 316 317 317 316 315 315 314 317 319 319 319 319 319 319 320 318 318 317
298 297 297 297 298 298 298 297 298 297 296 296 301 305 302 303 303 302 302 302 300 302 303 307 310 313 309 315 315 312 316 315 316 317 315 316 317 317 315 314 314 314 315 316 318 319 319 319 319 319 319 317 316 316
297 297 298 298 298 298 298 298 297 296 297 300 302 302 303 306 305 305 304 302 302 301 302 304 306 309 309 309 315 314 318 315 318 314 316 319 318 317 317 316 313 314 316 317 316 317 317 317 318 318 317 316 316 316
297 297 297 298 298 296 296 297 296 299 300 301 302 303 302 304 306 306 304 305 305 304 304 304 305 307 308 308 311 314 316 318 314 318 319 319 317 315 317 317 316 312 315 316 315 316 317 317 317 316 315 315 315 313
297 297 297 297 297 298 298 298 299 300 301 302 303 303 303 303 304 304 305 306 305 307 308 306 307 309 307 310 310 313 312 311 313 314 313 313 315 316 314 315 315 314 314 315 316 317 316 316 314 314 313 313 313 313
297 297 297 297 298 297 297 298 299 300 300 302 301 303 303 301 302 303 302 303 304 306 307 307 308 309 310 310 309 309 310 312 312 313 312 316 314 313 313 315 314 314 316 316 316 315 314 313 313 313 313 314 314 314
297 297 297 297 297 297 298 298 298 299 300 301 301 302 302 302 303 302 303 305 304 307 308 309 310 310 311 310 310 311 311 311 312 317 315 314 313 313 311 311 312 313 314 315 314 313 312 312 313 313 314 314 314 314
297 297 297 296 297 297 297 299 299 299 299 299 301 300 302 302 303 303 303 304 304 308 311 311 312 310 310 312 313 312 312 315 313 314 313 313 313 313 311 310 312 313 313 313 312 311 311 311 309 308 308 309 312 314
297 297 296 296 296 297 297 298 298 297 299 299 301 300 301 301 302 302 302 302 306 307 309 310 309 311 313 313 312 312 310 308 307 308 311 312 313 312 311 311 310 310 310 308 307 306 306 305 307 306 305 305 309 313
296 296 296 296 296 297 298 298 298 299 299 299 299 298 299 299 299 299 300 301 304 305 307 307 308 309 310 311 309 306 305 304 305 305 306 309 311 312 312 312 312 312 312 312 311 310 309 305 306 307 307 307 312 313
296 297 296 296 297 298 299 299 297 300 301 299 298 299 299 300 299 299 300 301 306 306 307 307 307 307 308 310 308 308 306 305 305 305 305 305 305 311 311 311 310 309 309 309 309 308 309 309 308 307 306 306 311 313
296 296 297 296 297 298 299 299 300 299 299 299 298 299 300 298 300 301 301 301 304 305 304 305 306 306 305 306 306 306 307 306 306 306 305 304 303 303 305 309 309 308 308 308 308 308 305 306 306 303 303 305 310 309
296 296 296 296 298 299 298 298 299 297 298 298 298 297 299 300 300 300 299 302 303 303 303 303 304 304 304 304 304 305 306 305 304 303 301 301 303 302 302 303 306 307 308 308 307 308 307 307 305 304 303 304 308 308
296 297 297 298 297 295 296 295 298 297 299 299 298 300 301 301 299 297 301 301 301 299 299 299 299 299 299 299 299 300 300 301 302 301 301 300 300 300 301 301 301 303 303 305 306 306 307 307 306 304 305 304 305 307
297 297 299 298 297 298 298 298 297 298 297 298 299 300 300 300 298 300 301 300 301 300 301 300 300 302 301 301 302 301 301 300 300 301 301 301 302 302 302 302 302 301 302 302 303 304 306 306 306 305 304 304 306 307
294 294 296 295 296 298 299 300 300 299 300 300 301 302 303 301 303 303 303 303 302 301 300 299 299 299 300 300 300 300 299 299 300 301 301 300 300 301 301 302 303 303 303 302 302 302 303 304 304 304 303 304 306 307
293 295 298 299 299 299 299 300 302 302 301 301 302 302 301 303 304 304 305 303 301 300 299 299 299 299 299 299 300 299 299 298 297 297 298 299 299 300 301 302 303 303 304 303 302 302 302 302 302 303 304 304 305 306
297 299 297 296 297 299 300 300 300 301 302 302 303 304 304 304 304 304 301 299 299 298 297 296 296 296 296 296 296 296 297 297 297 296 297 298 298 299 300 301 302 302 302 302 303 303 303 303 303 303 304 305 305 305
297 297 299 298 299 299 300 301 303 304 304 301 302 304 304 304 303 300 300 298 296 295 295 294 294 294 294 294 295 295 296 297 297 298 298 298 298 298 298 299 300 300 300 301 302 303 303 302 302 303 304 305 305 306
298 297 298 301 301 301 302 303 303 301 300 300 302 302 301 299 299 298 297 296 295 294 294 294 294 293 293 294 294 295 296 296 297 298 299 299 300 300 300 300 299 300 300 300 301 300 301 303 304 305 306 306 306 306
300 301 302 301 302 303 303 302 302 301 301 300 299 300 299 299 298 297 296 296 295 294 294 293 293 293 294 295 296 297 298 299 299 299 299 300 300 301 302 302 302 302 302 301 301 301 299 299 301 302 303 304 306 307
298 301 302 302 303 303 303 302 301 301 301 300 299 299 299 298 297 297 296 295 295 294 294 293 293 294 294 295 295 296 296 297 298 300 300 301 301 301 301 302 302 302 301 301 301 301 300 300 302 303 305 306 307 307
299 302 302 302 303 303 302 303 302 302 302 301 301 299 298 298 298 297 295 295 294 294 292 292 292 293 293 294 295 296 297 297 298 300 300 300 301 302 303 302 302 302 302 301 301 301 301 301 302 304 304 305 307 308
302 302 302 303 303 303 303 304 304 304 303 301 300 299 298 298 298 296 295 295 295 293 291 291 291 292 294 295 295 296 297 299 301 303 305 304 304 305 303 302 302 302 302 301 301 302 301 301 303 304 304 306 307 309
Wind_Speed
20 18 19 19 19 16 11 11 10 7 5 4 2 2 3 4 4 3 1 3 1 1 3 1 2 1 1 0 2 2 2 2 1 2 3 3 3 3 3 1 2 2 2 2 2 3 8 1 4 4 1 1 2 2
23 20 19 21 18 14 15 12 11 8 6 4 3 2 3 3 2 1 2 3 2 3 3 4 9 9 5 1 0 0 2 1 1 3 1 3 2 2 3 3 1 3 3 1 6 2 0 2 2 4 2 1 2 3
23 25 22 19 15 14 13 12 11 9 7 6 5 3 3 3 1 0 2 2 2 1 3 3 4 3 4 7 6 2 1 1 2 2 2 2 2 2 4 4 3 4 2 2 2 3 6 4 5 6 2 1 4 4
22 25 22 18 12 13 14 13 12 10 8 7 6 4 3 4 3 1 2 2 2 2 2 2 4 3 4 5 4 3 4 5 4 0 1 2 2 2 3 0 4 1 7 5 4 5 5 5 7 4 4 5 5 4
19 18 18 17 12 14 13 13 12 10 9 8 6 5 3 4 3 3 3 3 4 1 2 3 7 3 2 6 6 6 6 3 1 1 1 1 2 3 1 1 3 5 6 5 7 5 3 1 5 7 7 6 5 5
21 19 19 16 14 16 14 11 10 11 10 9 7 5 4 4 4 3 2 6 3 5 2 2 3 2 4 7 9 8 6 3 2 1 1 1 0 2 3 4 3 7 6 3 1 3 3 4 5 7 7 6 6 6
19 19 18 16 16 16 13 12 11 11 11 9 7 5 4 4 5 2 0 2 6 5 2 2 1 2 1 3 3 2 4 2 2 1 1 1 2 1 2 5 4 8 7 6 4 8 4 6 4 8 9 9 9 9
18 18 17 17 16 16 14 12 11 12 11 8 6 4 4 4 3 3 1 3 7 2 0 2 1 2 0 2 3 2 2 1 2 1 1 2 2 1 4 9 7 5 3 4 8 3 1 8 10 9 10 10 8 6
17 16 17 17 16 16 15 14 13 11 9 7 6 5 3 3 3 4 6 5 4 1 1 2 3 3 0 2 2 2 0 2 1 2 2 3 3 5 7 6 6 6 5 4 10 8 5 10 11 9 9 7 6 4
18 15 14 14 16 16 15 15 14 11 9 8 6 2 2 3 11 11 2 2 1 1 0 3 1 3 2 1 2 3 0 2 3 2 3 3 4 7 9 9 7 4 6 7 8 7 8 9 10 10 8 8 7 4
19 18 13 13 14 16 15 15 13 12 10 5 4 2 4 13 5 2 1 2 2 3 3 2 5 3 3 4 3 1 3 3 3 3 4 3 4 4 3 7 11 10 8 13 8 11 18 15 14 12 9 8 7 5
17 20 12 11 14 16 16 15 14 12 6 6 5 6 5 2 2 3 3 1 4 3 3 3 3 3 2 1 2 3 3 3 4 5 3 3 4 4 6 6 3 10 8 10 8 11 14 17 17 14 12 9 6 4
14 21 17 14 14 14 15 14 14 7 8 5 2 3 1 0 2 6 8 3 3 3 3 3 3 3 2 2 2 3 5 4 4 4 3 4 1 2 5 6 3 7 7 9 9 12 18 18 14 13 12 9 8 5
17 18 15 15 14 13 14 13 9 9 2 1 3 4 2 2 3 2 2 3 2 2 2 2 2 2 1 3 2 4 3 3 4 4 5 1 2 7 8 7 4 3 8 11 14 18 19 18 14 13 11 11 9 5
18 15 14 15 13 12 11 8 7 4 1 2 1 2 2 1 0 1 0 1 2 0 2 3 2 2 2 3 3 2 4 5 4 4 0 4 8 8 8 7 2 5 9 13 18 18 17 16 15 11 9 7 4 3
16 15 12 11 10 9 8 6 3 2 3 2 1 2 2 2 2 1 1 2 1 1 2 0 2 3 4 2 4 6 3 5 2 1 3 6 8 7 6 3 2 7 11 15 16 16 15 14 13 11 8 4 4 2
13 5 14 13 11 6 6 4 6 3 1 2 2 1 1 1 2 1 1 1 0 1 1 1 3 2 0 3 4 2 1 2 2 1 2 4 7 7 5 3 6 11 14 14 13 11 10 8 7 4 3 4 8 5
11 16 14 10 7 6 3 3 5 3 2 1 2 2 1 0 0 1 1 1 1 2 2 1 1 1 2 3 3 2 1 0 0 2 2 2 3 6 10 12 12 13 12 11 11 9 5 2 4 6 6 6 6 5
15 13 11 8 4 3 2 2 3 2 1 1 0 1 1 1 3 2 1 1 1 0 4 2 2 3 3 2 3 4 3 2 2 3 2 3 3 3 5 7 7 7 8 7 7 7 6 4 3 5 7 4 8 5
14 14 11 7 3 2 2 1 1 2 2 1 1 2 2 1 0 2 2 3 2 2 2 3 3 3 4 5 5 4 3 2 2 3 2 2 3 2 3 2 2 1 3 1 1 4 4 5 7 5 4 8 10 10
13 8 8 7 2 1 0 2 2 1 1 1 1 2 1 1 2 2 2 3 3 3 3 3 3 3 5 5 6 8 8 7 5 5 5 4 6 7 8 6 4 3 7 4 9 7 4 8 6 6 7 10 11 10
5 9 2 1 1 1 0 1 1 1 1 1 1 1 2 2 3 3 3 4 3 4 4 3 5 5 5 5 8 12 15 12 12 9 11 12 9 13 12 12 10 12 12 13 13 12 11 9 10 7 6 7 11 10
4 1 1 0 1 1 2 0 1 1 1 1 1 2 2 2 1 3 3 3 1 2 2 3 5 4 6 8 8 8 8 11 13 16 17 16 16 15 15 16 15 16 16 17 15 15 15 18 16 17 14 16 14 10
1 1 1 1 1 1 0 1 1 1 1 1 1 2 2 2 3 3 2 1 1 2 4 6 7 4 2 2 3 3 3 4 8 9 9 9 10 14 14 15 17 18 19 19 19 18 18 18 20 19 17 12 11 13
1 2 1 2 1 1 1 1 1 1 1 2 2 2 1 1 2 2 1 2 2 2 3 5 5 4 4 6 9 11 9 9 11 12 16 13 15 15 15 17 17 17 17 17 19 19 20 20 20 21 21 18 16 15
1 1 0 1 1 1 0 1 1 1 1 1 2 1 1 1 2 1 2 2 1 1 4 5 7 7 8 13 11 15 15 12 13 15 20 17 17 17 17 14 15 20 18 18 19 20 21 19 20 19 16 17 19 16
2 2 0 1 1 2 2 1 0 1 1 1 2 2 2 2 1 2 1 3 2 5 12 14 14 15 14 17 19 21 20 18 18 20 21 20 20 20 21 20 19 22 18 16 14 16 19 19 21 19 18 16 16 19
1 1 2 3 2 0 2 2 2 2 1 1 2 1 2 2 2 1 2 4 12 15 16 17 17 18 19 20 21 21 22 21 21 23 25 27 26 25 26 25 26 27 23 18 17 13 11 13 17 19 17 17 16 15
1 0 1 2 0 1 1 1 2 1 1 1 1 1 1 0 1 3 6 13 15 15 14 16 19 19 20 20 22 23 23 22 16 14 14 12 14 23 26 28 28 25 22 21 24 26 24 14 9 8 8 8 8 8
2 2 2 2 1 1 2 1 1 1 1 1 1 0 1 1 3 9 13 15 16 17 18 19 20 19 18 19 20 23 21 21 22 23 11 13 20 27 22 24 26 24 20 19 20 16 19 24 20 15 11 10 10 10
3 1 1 1 1 1 2 5 4 3 2 3 4 2 2 1 2 3 10 17 18 19 19 21 23 22 18 20 20 20 19 27 26 29 31 32 30 29 26 22 23 22 17 18 18 17 16 19 20 17 15 14 13 12
1 0 0 1 0 2 2 3 2 1 1 1 2 3 2 2 2 2 10 19 20 22 26 23 22 27 30 31 31 31 32 34 34 30 29 25 21 23 26 23 19 19 15 15 17 18 20 23 21 20 16 15 13 13
1 2 2 1 1 2 2 3 3 2 2 1 1 2 2 2 3 3 10 13 18 23 27 29 30 30 27 28 30 33 35 34 35 28 10 5 8 10 9 15 19 18 17 18 18 16 20 23 22 20 17 15 13 12
Wind_Direction
201 202 205 203 204 223 224 257 267 252 263 264 271 262 277 318 343 11 145 183 106 275 280 271 319 202 154 201 227 57 208 176 86 137 185 164 192 176 185 108 173 171 167 210 152 265 284 82 131 219 4 169 153 123
207 206 203 200 205 212 244 253 237 229 237 246 241 238 243 275 320 20 136 169 207 237 313 288 275 263 271 305 208 166 354 161 162 107 175 135 159 173 160 205 82 200 221 247 204 257 14 254 270 302 239 242 171 139
209 211 207 198 204 223 239 229 220 222 226 232 224 227 226 237 247 181 167 179 173 303 272 293 248 256 270 237 232 280 199 161 168 348 139 116 190 160 176 214 161 216 148 214 210 206 256 259 245 248 224 294 113 111
199 194 197 193 205 231 222 217 217 217 216 219 214 216 222 223 220 201 171 202 153 91 274 285 348 293 264 214 221 220 140 115 97 329 107 140 192 217 191 70 230 71 163 188 244 263 267 242 232 218 142 125 133 134
190 186 186 189 218 210 211 211 211 211 209 209 207 207 222 217 216 209 197 200 213 266 302 291 309 355 244 170 129 111 110 103 100 143 156 173 108 179 138 148 202 194 180 204 254 202 220 172 169 153 149 165 153 134
187 189 191 196 208 199 202 205 208 206 195 201 205 203 215 206 193 169 183 216 198 184 264 289 359 2 78 127 98 71 64 71 66 107 125 136 38 268 224 242 241 222 219 236 261 181 198 141 145 160 157 138 124 98
184 187 188 191 195 194 195 200 211 193 186 198 200 199 203 202 192 209 36 141 166 167 226 263 214 42 53 99 61 65 46 68 27 100 189 177 164 265 229 251 232 238 242 230 218 142 130 185 173 157 140 126 108 93
179 185 185 188 185 187 186 184 173 173 185 190 190 192 199 189 186 236 158 185 179 144 197 240 201 191 356 138 131 8 109 91 46 90 167 215 153 237 248 243 261 268 262 226 214 219 317 141 136 128 130 133 113 85
174 179 183 187 185 185 183 181 176 183 179 176 174 173 147 169 172 163 136 129 158 213 200 201 192 180 149 98 99 123 274 182 55 221 207 192 179 224 226 231 241 227 209 229 208 194 158 169 148 143 137 127 108 76
171 168 174 180 184 181 181 182 180 179 171 164 154 173 174 179 143 129 114 161 159 356 154 241 152 176 194 169 118 137 40 171 212 178 132 220 256 264 256 238 247 227 213 173 147 164 167 166 159 150 134 115 107 76
165 164 159 177 178 179 176 175 174 165 160 175 172 154 127 139 137 62 133 197 165 214 194 216 208 154 183 175 149 247 162 165 222 155 207 202 260 244 274 258 238 233 222 207 229 210 189 174 162 148 140 131 112 97
182 174 163 162 175 174 172 173 172 176 181 173 141 119 133 153 98 155 185 170 217 219 177 190 183 211 141 200 168 173 187 183 231 139 199 212 247 273 309 308 267 204 198 192 191 172 165 156 155 148 143 134 124 118
164 170 172 160 170 167 165 168 171 176 154 141 152 109 168 53 146 187 182 184 208 185 180 173 174 174 152 201 103 169 187 212 127 193 222 229 209 300 333 319 280 207 205 185 173 168 154 144 141 142 135 135 140 139
133 137 151 154 159 161 159 158 163 165 168 160 150 141 211 171 225 186 163 132 107 159 146 174 142 195 148 165 142 190 157 165 210 207 215 195 7 326 324 315 278 198 185 172 161 155 149 146 142 138 143 151 157 133
136 129 130 134 143 145 149 145 150 160 127 98 147 139 160 79 143 149 335 211 153 162 152 145 139 207 154 163 203 140 177 226 220 201 97 354 328 317 311 312 273 171 163 159 156 152 147 143 142 145 156 171 175 142
141 125 127 125 121 127 141 133 104 59 50 55 89 102 85 145 152 186 136 119 120 134 142 150 153 181 198 210 184 208 206 200 130 37 348 336 339 336 321 312 179 160 157 150 147 145 145 150 160 164 164 191 236 251
144 118 145 134 137 134 121 80 48 68 13 51 80 59 91 49 116 127 225 83 333 166 131 143 200 183 53 221 199 190 244 72 61 19 356 351 7 8 17 65 142 146 141 140 137 138 139 142 167 164 78 284 255 247
119 139 136 136 143 112 71 93 137 164 214 161 179 155 201 284 184 248 264 314 282 114 156 154 130 183 223 206 168 107 84 42 103 355 1 4 18 49 77 89 96 100 104 111 109 110 118 155 96 58 9 326 262 239
131 135 134 144 155 94 98 41 17 94 91 118 155 192 239 243 249 260 242 0 43 65 132 144 169 186 205 211 153 132 103 70 56 25 13 16 3 73 97 101 112 112 115 118 125 121 109 81 14 28 16 331 280 261
127 135 124 115 131 69 98 92 129 131 168 132 189 191 228 214 265 232 197 174 171 171 203 217 209 197 200 187 182 170 170 162 5 347 337 7 360 306 253 201 178 166 139 157 184 233 214 243 253 246 267 283 274 276
116 110 123 68 42 55 326 145 143 201 151 207 127 211 208 223 218 210 190 153 186 218 224 222 227 231 227 242 246 240 231 226 246 245 261 279 306 304 296 273 241 195 254 207 241 239 227 227 244 260 251 251 251 265
107 164 249 325 54 125 121 170 38 101 209 87 203 212 224 213 209 204 140 190 223 228 216 226 239 253 250 235 232 226 235 241 245 256 261 264 275 280 269 259 250 248 245 242 242 241 230 245 258 262 297 318 281 264
141 176 188 83 155 58 90 163 206 113 222 132 235 229 215 216 177 156 219 216 208 20 330 336 327 306 283 286 286 270 259 251 255 260 261 260 259 261 259 258 252 251 255 254 254 251 252 249 253 229 245 256 262 248
29 36 36 50 70 94 227 140 112 161 200 214 217 235 206 203 154 214 235 101 83 61 62 29 11 354 342 302 281 296 282 282 271 264 254 251 253 255 252 255 256 252 247 249 249 247 244 244 241 244 251 258 247 236
40 357 51 355 184 199 163 162 169 200 245 199 238 244 157 195 230 208 147 124 146 70 23 1 349 335 303 292 285 282 280 273 272 276 270 258 262 265 262 256 254 251 249 245 243 238 239 241 241 244 247 242 239 232
77 179 194 48 102 265 24 310 213 264 259 241 237 311 293 251 248 118 76 56 57 30 343 323 313 304 289 280 283 283 284 282 274 266 267 265 258 254 256 256 254 253 244 236 240 243 242 240 238 228 225 228 231 222
22 49 4 243 284 266 267 261 355 274 290 336 360 321 299 242 133 75 95 65 345 326 316 306 297 285 280 281 278 278 278 269 250 252 262 261 258 252 247 246 247 252 253 246 240 237 243 241 233 228 224 222 225 223
319 321 348 351 306 296 332 3 338 5 36 9 321 295 348 16 55 14 30 355 338 323 315 309 302 290 284 282 280 279 277 272 266 260 258 257 252 249 246 246 249 251 250 247 242 242 243 245 241 229 220 220 225 219
271 347 274 318 359 95 27 55 33 5 27 35 353 318 24 222 31 51 11 348 338 324 313 315 315 312 300 293 289 282 275 265 255 248 244 250 249 242 235 235 240 244 245 245 244 239 236 237 236 223 209 211 218 222
62 338 349 357 37 29 19 81 108 125 148 43 339 310 19 57 73 33 1 346 339 330 318 308 305 306 298 298 297 296 291 275 260 247 251 253 252 258 254 233 232 235 232 230 227 230 234 229 237 243 239 234 220 221
324 334 79 37 348 337 117 150 127 112 86 53 36 39 31 354 325 341 356 350 340 335 333 332 329 319 311 317 310 305 299 300 289 277 266 261 256 252 254 234 228 225 217 217 220 218 218 212 209 215 223 228 227 223
183 194 72 83 115 157 149 186 191 254 189 38 39 28 8 348 341 308 345 346 346 347 340 334 328 321 327 326 324 321 317 310 305 290 272 264 263 250 246 222 220 227 208 211 214 216 216 212 206 205 216 228 231 224
211 197 196 219 224 219 184 212 204 195 135 42 58 36 9 357 355 318 324 345 347 342 329 328 327 327 333 335 335 337 341 339 342 349 316 218 201 227 194 201 207 214 210 208 211 212 211 205 203 203 212 220 218 212